Location: Felsheim
(48.7267°N, 10.7386°E)
Time: 03:32:24
(UTC+00:00)

GRACE-FO 1 - Pass Details

Date: 09 April 2020
Orbit: 482 x 505 km, 89.0° (Epoch: 26 May)

Event Time Altitude Azimuth Distance (km) Brightness Sun altitude
Exits shadow 19:50:35 29° 173° (S) 939 5.6 -17.3°
Maximum altitude 19:52:22 82° 89° (E) 513 4.5 -17.6°
Drops below altitude 10° 19:56:06 10° 1° (N) 1,715 7.8 -18.1°
Sets 19:58:12 0° 1° (N) 2,600 8.8 -18.4°
